Regional Weather Roundup
Issued by NWS

Home | Current Version | Previous Version | Text Only | Print | Product List | Glossary Off
Versions: 1 2 3 4 5 6 7 8 9 10 11 12 13 14 15 16 17 18 19 20 21 22 23 24 25 26 27 28 29 30 31 32 33 34 35 36 37 38 39 40 41 42 43 44 45 46 47 48 49 50

538
ASUS43 KDTX 282001
RWRMI
MICHIGAN HOURLY REGIONAL WEATHER ROUNDUP
NATIONAL WEATHER SERVICE DETROIT/PONTIAC MI
400 PM EDT TUE MAR 28 2017

NOTE: "FAIR" INDICATES FEW OR NO CLOUDS BELOW 12,000 FEET WITH NO
SIGNIFICANT WEATHER AND/OR OBSTRUCTION TO VISIBILITY.

MIZ047>049-052>055-059>063-066>070-074>076-081>083-282100-
SOUTHEAST LOWER MICHIGAN

CITY           SKY/WX    TMP DP  RH WIND       PRES   REMARKS
ADRIAN         CLOUDY    47  40  76 NE10      30.08S
ALMA           PTSUNNY   48  38  68 N8        30.13S
ANN ARBOR      CLOUDY    48  39  71 NW10      30.07S
BAD AXE        CLOUDY    41  34  75 N10       30.13R
CARO           CLOUDY    44  37  75 N14       30.12S
DETROIT CITY   PTSUNNY   49  38  65 N10       30.07F
DETROIT        CLOUDY    49  39  68 VRB7      30.08S
FLINT          PTSUNNY   47  36  65 N7G17     30.11S
GROSSE ILE     CLOUDY    48  38  69 NE10G16   30.06S
HILLSDALE      CLOUDY    46  37  71 N5        30.07R
HOWELL         CLOUDY    43  37  78 N6        30.08F

CITY           SKY/WX    TMP DP  RH WIND       PRES   REMARKS
JACKSON        CLOUDY    46  37  71 N10       30.09R
LAMBERTVILLE   CLOUDY    50  40  69 NW7       30.07S
LANSING        CLOUDY    46  35  65 NE8       30.12R
LAPEER         PTSUNNY   48  36  62 N10G20    30.09F
MASON          CLOUDY    43  38  81 N9        30.11R
MONROE         CLOUDY    49  41  74 N9G16     30.06S
MT. CLEMENS    MOSUNNY   50  41  71 N15       30.05S
PONTIAC        CLOUDY    45  37  73 N10       30.07S
PORT HOPE        N/A     40  35  83 NW8       30.13R WCI  34
PORT HURON     SUNNY     43  36  75 N10G20    30.09R
TRI CITIES     MOSUNNY   46  38  73 N12       30.13S
MIDLAND        FAIR      49  36  62 NE3       30.11F
TROY           CLOUDY    48  37  66 N8G16     30.09F
SAGINAW HB     PTSUNNY   45  34  65 N10       30.13R
$$
MIZ043>046-050>051-056>058-064>065-071>073-077>080-282100-
SOUTHWEST LOWER MICHIGAN

CITY           SKY/WX    TMP DP  RH WIND       PRES   REMARKS
BATTLE CREEK   CLOUDY    46  39  76 NE7       30.10S
BENTON HARBOR  CLOUDY    42  36  79 VRB7      30.12R
BIG RAPIDS     SUNNY     53  33  45 N6        30.10S
COLDWATER      CLOUDY    47  40  76 N7        30.08S
FREMONT        FAIR      52  36  55 CALM      30.11S
HOLLAND        CLOUDY    49  38  65 NE7       30.13R
GRAND RAPIDS   CLOUDY    47  40  76 E7        30.12R
IONIA          CLOUDY    46  36  68 N8        30.11F
KALAMAZOO      CLOUDY    47  38  71 NE6       30.11R
LUDINGTON      SUNNY     46  38  73 NW15G21   30.13S
MARSHALL       CLOUDY    46  39  76 N3        30.09S
MOUNT PLEASANT SUNNY     50  36  58 N7        30.11S
MUSKEGON       MOSUNNY   52  39  61 W7        30.12F
SOUTH HAVEN    CLOUDY    41  38  87 N10G16    30.12R
$$
MIZ016>042-282100-
NORTHERN LOWER MICHIGAN

CITY           SKY/WX    TMP DP  RH WIND       PRES   REMARKS
ALPENA         SUNNY     50  30  46 N12       30.15R
BEAVER ISLAND  SUNNY     45  35  66 NW7       30.18S
BELLAIRE       SUNNY     46  36  66 W7        30.16R
CADILLAC       SUNNY     53  34  47 N6        30.10S
CHARLEVOIX     CLOUDY    37  35  94 NW5       30.21S FOG     WCI  33
FRANKFORT      SUNNY     43  35  73 N8        30.16F
GAYLORD        SUNNY     51  29  42 CALM      30.13S
GRAYLING       SUNNY     52  32  46 N10       30.13S
HARBOR SPRINGS CLOUDY    35  33  92 SW9       30.17S FOG     WCI  28
HOUGHTON LAKE  SUNNY     50  32  50 SW6       30.11S
MANISTEE       SUNNY     43  37  79 NW15G21   30.14F
OSCODA         SUNNY     45  32  59 NE9       30.14R
PELLSTON       SUNNY     53  27  36 VRB3      30.15S
ROGERS CITY    SUNNY     43  33  69 N7        30.17S
TRAVERSE CITY  MOSUNNY   44  35  70 NE9       30.16S
$$
MIZ007>008-015-282100-
EASTERN UPPER MICHIGAN

CITY           SKY/WX    TMP DP  RH WIND       PRES   REMARKS
KINROSS        SUNNY     48  29  47 NW10      30.15F
MACKINAC ISLAN SUNNY     43  35  71 SW6       30.16S
NEWBERRY       SUNNY     50  31  47 N7        30.15S
S. S. MARIE    SUNNY     49  31  49 W10       30.14S
MUNISING         N/A     38  32  79 N7        30.19R WCI  33
$$
MIZ004>006-011>014-085-282100-
CENTRAL UPPER MICHIGAN

CITY           SKY/WX    TMP DP  RH WIND       PRES   REMARKS
MANISTIQUE     MOSUNNY   37  35  94 SW6       30.18S WCI  32
ESCANABA       SUNNY     41  33  73 SE7       30.18S
MENOMINEE        N/A    N/A N/A N/A MISG        N/A
SAWYER-GWINN   SUNNY     50  32  50 NE12      30.16S
$$
MIZ001>003-009>011-084-282100-
WESTERN UPPER MICHIGAN

CITY           SKY/WX    TMP DP  RH WIND       PRES   REMARKS
IRON MOUNTAIN  SUNNY     57  29  34 SW5       30.13F
HOUGHTON       SUNNY     47  31  53 NW8       30.17S
COPPER HARBOR    N/A     38  34  85 N8        30.20S WCI  32
IRONWOOD       SUNNY     56  30  37 N8        30.16S
$$

ABBREVIATIONS USED IN REMARKS
   TC - TEMPERATURE IN CELSIUS
  WCI - WIND CHILL INDEX
   HX - HEAT INDEX
  VSB - VISIBILITY





USA.gov is the U.S. government's official web portal to all federal, state and local government web resources and services.